Weather History for Jaffrey, NH

Change the Weather History Date:

Saturday, January 19, 2013

  Actual Average Record
Temperature  
Mean Temperature 29 °F -  
Max Temperature 39 °F 24 °F 39 °F (1999)
Min Temperature 19 °F 8 °F -14 °F (2003)
Degree Days  
Heating Degree Days 36    
Moisture  
Dew Point 16 °F    
Average Humidity 54    
Maximum Humidity 64    
Minimum Humidity 45    
Precipitation  
Precipitation 0.00 in - - ()
Sea Level Pressure  
Sea Level Pressure 30.09 in    
Wind  
Wind Speed 11 mph (SSW)    
Max Wind Speed 16 mph    
Max Gust Speed 31 mph    
Visibility 10 miles    
Events      
Averages and records for this station are not official NWS values.
T = Trace of Precipitation, MM = Missing Value Source: NWS Daily Summary

Daily Weather History Graph

Daily Weather History Graph

Search for Another Location

Airport:

Trip Planner

Search our weather history database for the weather conditions in past years. The results will help you decide how hot, cold, wet, or windy it might be!

Date:

Astronomy

Jan. 19, 2013 Rise Set
Actual Time 7:13 AM EST 4:44 PM EST
Civil Twilight 6:42 AM EST 5:15 PM EST
Nautical Twilight 6:07 AM EST 5:50 PM EST
Astronomical Twilight 5:34 AM EST 6:23 PM EST
Moon 11:10 AM EST (1/19) 12:42 AM EST (1/19)
Length of Visible Light 10h 33m
Length of Day
9h 31m
First Quarter, 57% of the Moon is Illuminated
Jan 19
First Quarter
Jan 26
Full
Feb 3
Last Quarter
Feb 10
New
Feb 17
First Quarter

Hourly Weather History & Observations

Time (EST) Temp. Windchill Dew Point Humidity Pressure Visibility Wind Dir Wind Speed Gust Speed Precip Events Conditions
12:52 AM 19.0 °F 8.2 °F 5.0 °F 54% 30.30 in 10.0 mi SSW 9.2 mph - N/A   Overcast
1:52 AM 21.9 °F 9.8 °F 6.1 °F 51% 30.29 in 10.0 mi SSW 12.7 mph 20.7 mph N/A   Overcast
2:52 AM 21.9 °F 9.2 °F 7.0 °F 53% 30.28 in 10.0 mi SW 13.8 mph 23.0 mph N/A   Scattered Clouds
3:52 AM 21.9 °F 10.4 °F 8.1 °F 55% 30.24 in 10.0 mi SW 11.5 mph 18.4 mph N/A   Scattered Clouds
4:52 AM 23.0 °F 11.1 °F 9.0 °F 55% 30.21 in 10.0 mi SW 12.7 mph 19.6 mph N/A   Clear
5:52 AM 24.1 °F 12.5 °F 10.9 °F 57% 30.18 in 10.0 mi SSW 12.7 mph 23.0 mph N/A   Clear
6:52 AM 25.0 °F 13.1 °F 10.9 °F 55% 30.17 in 10.0 mi SSW 13.8 mph 20.7 mph N/A   Clear
7:52 AM 26.1 °F 13.6 °F 12.9 °F 58% 30.15 in 10.0 mi SSW 16.1 mph 24.2 mph N/A   Overcast
8:52 AM 28.0 °F 16.1 °F 15.1 °F 58% 30.15 in 10.0 mi SSW 16.1 mph 26.5 mph N/A   Clear
9:52 AM 30.9 °F 21.7 °F 16.0 °F 54% 30.14 in 10.0 mi SSW 11.5 mph 23.0 mph N/A   Clear
10:52 AM 33.1 °F 23.0 °F 17.1 °F 52% 30.12 in 10.0 mi SSW 15.0 mph 29.9 mph N/A   Clear
11:52 AM 35.1 °F 25.2 °F 17.1 °F 48% 30.06 in 10.0 mi SW 16.1 mph 31.1 mph N/A   Clear
12:52 PM 37.0 °F 28.5 °F 18.0 °F 46% 30.03 in 10.0 mi SSW 13.8 mph 25.3 mph N/A   Clear
1:52 PM 37.9 °F 31.5 °F 18.0 °F 45% 30.01 in 10.0 mi SSW 9.2 mph 24.2 mph N/A   Clear
2:52 PM 39.0 °F 34.0 °F 19.0 °F 45% 30.00 in 10.0 mi SSW 6.9 mph 19.6 mph N/A   Clear
4:52 PM 37.9 °F 32.1 °F 19.9 °F 48% 30.00 in 10.0 mi SSW 8.1 mph - N/A   Clear
5:52 PM 33.1 °F 28.7 °F 21.9 °F 64% 30.00 in 10.0 mi South 4.6 mph - N/A   Clear
6:52 PM 33.1 °F 30.0 °F 21.0 °F 61% 29.99 in 10.0 mi South 3.5 mph - N/A   Clear
7:52 PM 34.0 °F 31.0 °F 21.0 °F 59% 29.98 in 10.0 mi SSW 3.5 mph - N/A   Clear
9:52 PM 35.1 °F 30.1 °F 21.0 °F 57% 29.93 in 10.0 mi SSW 5.8 mph - N/A   Clear
10:52 PM 35.1 °F 31.0 °F 21.0 °F 57% 29.89 in 10.0 mi SSW 4.6 mph - N/A   Clear
11:52 PM 37.0 °F 31.0 °F 25.0 °F 62% 29.86 in 10.0 mi SSW 8.1 mph - N/A   Partly Cloudy